Regional Weather Roundup
Issued by NWS

Home | Current Version | Previous Version | Graphics & Text | Print | Product List | Glossary On
Versions: 1 2 3 4 5 6 7 8 9 10 11 12 13 14 15 16 17 18 19 20 21 22 23 24 25 26 27 28 29 30 31 32 33 34 35 36 37 38 39 40 41 42 43 44 45 46 47 48 49 50
000
ASUS43 KBIS 211310
RWRND

NORTH DAKOTA REGIONAL WEATHER ROUNDUP
NATIONAL WEATHER SERVICE BISMARCK ND
700 AM CST SUN JAN 21 2018

NOTE: "FAIR" INDICATES FEW OR NO CLOUDS BELOW 12,000 FEET WITH NO
SIGNIFICANT WEATHER AND/OR OBSTRUCTIONS TO VISIBILITY.


NDZ001>003-009>011-017-211400-
NORTHWEST NORTH DAKOTA

CITY           SKY/WX    TMP DP  RH WIND       PRES   REMARKS
WILLISTON      CLEAR      8   5  87 CALM      29.99R
MINOT          CLOUDY    16  12  84 S8        29.99R WCI   5
MINOT AFB      CLOUDY    11   9  88 W5        29.98R WCI   3
$$

NDZ018>021-031>035-040>046-211400-
SOUTHWEST NORTH DAKOTA

CITY           SKY/WX    TMP DP  RH WIND       PRES   REMARKS
BISMARCK       PTCLDY    13  11  92 CALM      30.02R
DICKINSON      PTCLDY    20  15  81 W9        29.95S WCI   9
GARRISON         N/A     10   8  92 CALM      30.00R
HETTINGER ARPT MOCLDY    16  12  84 NW5       29.98S WCI   9
$$

NDZ004>008-012>016-024-026-027-054-211400-
NORTHEAST NORTH DAKOTA

CITY           SKY/WX    TMP DP  RH WIND       PRES   REMARKS
GRAND FORKS    CLOUDY    20  20 100 N8        30.03R FOG     WCI  10
GRND FRKS AFB  CLOUDY    19  17  93 N7        30.03R WCI  10
DEVILS LAKE    FAIR      10   7  87 CALM      30.02R
$$

NDZ022-023-025-028>030-036>039-047>053-211400-
SOUTHEAST NORTH DAKOTA

CITY           SKY/WX    TMP DP  RH WIND       PRES   REMARKS
FARGO          FAIR      17  15  92 N6        30.01R WCI   9
JAMESTOWN      CLOUDY    14  12  92 NW6       29.99S WCI   5
$$




USA.gov is the U.S. government's official web portal to all federal, state and local government web resources and services.